Regional Weather Roundup
Issued by NWS

Home | Current Version | Previous Version | Graphics & Text | Print | Product List | Glossary On
Versions: 1 2 3 4 5 6 7 8 9 10 11 12 13 14 15 16 17 18 19 20 21 22 23 24 25 26 27 28 29 30 31 32 33 34 35 36 37 38 39 40 41 42 43 44 45 46 47 48 49 50
306
ASUS44 KMEG 222110
RWRTN
TENNESSEE HOURLY STATE WEATHER ROUNDUP
NATIONAL WEATHER SERVICE MEMPHIS TN
400 PM CDT SAT APR 22 2017

TNZ002-004-019-021-049-052-054-088>092-222200-
WEST TENNESSEE

CITY           SKY/WX    TMP DP  RH WIND       PRES   REMARKS
MEMPHIS INTL   CLOUDY    56  54  93 N10       29.86F FOG
NWS MEMPHIS      N/A     56 N/A N/A MISG        N/A
JACKSON        CLOUDY    57  55  93 NE10      29.87R
DYERSBURG      CLOUDY    54  50  86 NE15      29.90S
SOMERVILLE     CLOUDY    57  55  94 N8G14     29.84S
UNION CITY     CLOUDY    52  50  93 NE15      29.90S FOG
BOLIVAR        PTSUNNY   57  55  94 VRB7      29.84S
PARIS          CLOUDY    50  48  93 NE15      29.89F
HUNTINGDON     CLOUDY    55  52  88 NE13G20   29.87F
LEXINGTON      CLOUDY    55  55 100 NE8       29.85R
SAVANNAH       PTSUNNY   59  57  94 N12       29.82R
$$

TNZ008-025-027-028-033-062-065-066-222200-
NORTH MIDDLE TENNESSEE

CITY           SKY/WX    TMP DP  RH WIND       PRES   REMARKS
NASHVILLE      LGT RAIN  55  52  89 N17G26    29.87S
PORTLAND       CLOUDY    52  52 100 NE8G16    29.88F FOG
CLARKSVILLE    CLOUDY    53  49  86 NE13      29.91S
SMYRNA         RAIN      56  55  97 N10       29.88R
COOKEVILLE     PTSUNNY   57  57 100 VRB3      29.84F FOG
CROSSVILLE     TSTM      58  55  90 N12G22    29.85F FOG
$$

TNZ061-075-076-078-094-096-097-222200-
SOUTH MIDDLE TENNESSEE

CITY           SKY/WX    TMP DP  RH WIND       PRES   REMARKS
FAYETTEVILLE   PTSUNNY   73  64  73 SW7       29.79S
TULLAHOMA      CLOUDY    63  61  94 N15       29.83R
WINCHESTER     PTSUNNY   75  63  64 S12       29.79F
MCMINNVILLE    CLOUDY    61  61 100 N13       29.84S
COLUMBIA       CLOUDY   N/A N/A N/A VRB3      29.83R VSB 1
SHELBYVILLE    CLOUDY    59  59 100 NE7       29.84R
$$

TNZ017-018-042-046-047-222200-
NORTHEAST TENNESSEE

CITY           SKY/WX    TMP DP  RH WIND       PRES   REMARKS
TRI CITIES     CLOUDY    68  59  73 NW7       29.86F
ELIZABETHTON   PTSUNNY   70  57  64 NW9       29.85S
$$

TNZ012-013-036-069-073-074-222200-
CENTRAL EAST TENNESSEE

CITY           SKY/WX    TMP DP  RH WIND       PRES   REMARKS
KNOXVILLE      CLOUDY    73  58  59 SW9       29.79F
OAK RIDGE      HVY RAIN  60  58  92 CALM      29.86R VSB 1/4
DOWNTOWN KNOXV CLOUDY    72  64  78 VRB5      29.81F
GATLINBURG     PTSUNNY   72  55  56 NW7       29.81F
MORRISTOWN     CLOUDY    68  61  77 N8        29.83F
JACKSBORO      MOSUNNY   59  57  94 NE9       29.87F
$$

TNZ083-085-099-222200-
SOUTHEAST TENNESSEE

CITY           SKY/WX    TMP DP  RH WIND       PRES   REMARKS
CHATTANOOGA    LGT RAIN  75  62  64 S6        29.80F
$$

SKY/WX REPORTED AS FAIR MEANS FEW OR NO CLOUDS BELOW
12 THOUSAND FEET.





USA.gov is the U.S. government's official web portal to all federal, state and local government web resources and services.